Terminal Aerodrome Forecast
Issued by NWS Milwaukee/Sullivan, WI

Home | Current Version | Previous Version | Text Only | Print | Product List | Glossary On
Versions: 1 2 3 4 5 6 7 8 9 10 11 12 13 14 15 16 17 18 19 20 21 22 23 24 25 26 27 28 29 30 31 32 33 34 35 36 37 38 39 40 41 42 43 44 45 46 47 48 49 50
000
FTUS43 KMKX 270211 AAA
TAFMKE
TAF AMD
KMKE 270211Z 2702/2806 15008KT 5SM -SN SCT009 OVC015
      TEMPO 2702/2704 2SM -SN BKN009 OVC012
     FM270800 10005KT 6SM BR OVC020
     FM271200 06005KT P6SM OVC025
     FM271600 05007KT P6SM BKN035
     FM272200 04005KT P6SM SCT200=

USA.gov is the U.S. government's official web portal to all federal, state and local government web resources and services.